,,PA_Meas_PMT16A,,PR_Meas_QMR101_102,,RH_Meas_QMH101,,SR_Meas_QMS101,,TA_Meas_QMH101,,GenWind,,GenWind,
time,status,PA,status,PR,status,RH,status,SR,status,TA,status,DirAvg,status,SpdAvg,
2012-07-05, 00:00:05,VALID,915.934,VALID,0,VALID,95.0564,VALID,0,VALID,19.5498,VALID,19,VALID,0,
2012-07-05, 00:01:05,VALID,915.929,VALID,0,VALID,95.0564,VALID,0,VALID,19.5693,VALID,19,VALID,0,
2012-07-05, 00:02:05,VALID,915.96,VALID,0,VALID,95.2698,VALID,0,VALID,19.5888,VALID,19,VALID,0,
2012-07-05, 00:03:05,VALID,915.97,VALID,0,VALID,95.3232,VALID,0,VALID,19.6083,VALID,19,VALID,0,
2012-07-05, 00:04:05,VALID,915.968,VALID,0,VALID,95.3232,VALID,0,VALID,19.6083,VALID,19,VALID,0,
2012-07-05, 00:05:05,VALID,915.961,VALID,0,VALID,95.3079,VALID,0,VALID,19.6083,VALID,19,VALID,0,
2012-07-05, 00:06:05,VALID,915.986,VALID,0,VALID,95.3766,VALID,0,VALID,19.6293,VALID,19,VALID,0,
2012-07-05, 00:07:05,VALID,915.933,VALID,0,VALID,95.3918,VALID,0,VALID,19.6293,VALID,19,VALID,0,
2012-07-05, 00:08:05,VALID,915.927,VALID,0,VALID,95.3689,VALID,0,VALID,19.6083,VALID,19,VALID,0,
2012-07-05, 00:09:05,VALID,915.867,VALID,0,VALID,95.247,VALID,0,VALID,19.6098,VALID,19,VALID,0,
2012-07-05, 00:10:05,VALID,915.853,VALID,0,VALID,95.3689,VALID,0,VALID,19.5873,VALID,19,VALID,0,
2012-07-05, 00:11:05,VALID,915.829,VALID,0,VALID,95.4375,VALID,0,VALID,19.6068,VALID,19,VALID,0,
2012-07-05, 00:12:05,VALID,915.83,VALID,0,VALID,95.5367,VALID,0,VALID,19.6068,VALID,19,VALID,0,
2012-07-05, 00:13:05,VALID,915.844,VALID,0,VALID,95.5519,VALID,0,VALID,19.6068,VALID,19,VALID,0,
2012-07-05, 00:14:05,VALID,915.833,VALID,0,VALID,95.5519,VALID,0.107441,VALID,19.5873,VALID,19,VALID,0,
2012-07-05, 00:15:05,VALID,915.817,VALID,0,VALID,95.5748,VALID,0,VALID,19.6278,VALID,19,VALID,0,
2012-07-05, 00:16:05,VALID,915.793,VALID,0,VALID,95.6053,VALID,0.107441,VALID,19.6473,VALID,19,VALID,0,
2012-07-05, 00:17:05,VALID,915.79,VALID,0,VALID,95.5138,VALID,0.107441,VALID,19.6263,VALID,19,VALID,0,
2012-07-05, 00:18:05,VALID,915.821,VALID,0,VALID,95.5214,VALID,0.107441,VALID,19.6263,VALID,19,VALID,0,
2012-07-05, 00:19:05,VALID,915.773,VALID,0,VALID,95.4833,VALID,0,VALID,19.6473,VALID,19,VALID,0,
2012-07-05, 00:20:05,VALID,915.804,VALID,0,VALID,95.3842,VALID,0,VALID,19.6263,VALID,19,VALID,0,
2012-07-05, 00:21:05,VALID,915.792,VALID,0,VALID,95.3384,VALID,0,VALID,19.6473,VALID,19,VALID,0,
2012-07-05, 00:22:05,VALID,915.789,VALID,0,VALID,95.2851,VALID,0,VALID,19.6263,VALID,19,VALID,0,
2012-07-05, 00:23:05,VALID,915.782,VALID,0,VALID,95.2241,VALID,0.107441,VALID,19.6263,VALID,19,VALID,0,
2012-07-05, 00:24:05,VALID,915.751,VALID,0,VALID,95.1021,VALID,0,VALID,19.6263,VALID,19,VALID,0,
2012-07-05, 00:25:05,VALID,915.724,VALID,0,VALID,95.0106,VALID,0,VALID,19.6068,VALID,19,VALID,0,
2012-07-05, 00:26:05,VALID,915.737,VALID,0,VALID,95.003,VALID,0,VALID,19.5888,VALID,19,VALID,0,
2012-07-05, 00:27:05,VALID,915.696,VALID,0,VALID,94.9725,VALID,0,VALID,19.5888,VALID,19,VALID,0,
2012-07-05, 00:28:05,VALID,915.654,VALID,0,VALID,95.0564,VALID,0,VALID,19.5693,VALID,19,VALID,0,
2012-07-05, 00:29:05,VALID,915.622,VALID,0,VALID,94.9573,VALID,0,VALID,19.5498,VALID,19,VALID,0,
2012-07-05, 00:30:05,VALID,915.611,VALID,0,VALID,94.8582,VALID,0.107441,VALID,19.5693,VALID,19,VALID,0,
2012-07-05, 00:31:05,VALID,915.568,VALID,0,VALID,94.7057,VALID,0,VALID,19.6083,VALID,19,VALID,0,
2012-07-05, 00:32:05,VALID,915.575,VALID,0,VALID,94.5227,VALID,0,VALID,19.6068,INVALID,360,VALID,0,
2012-07-05, 00:33:05,VALID,915.541,VALID,0,VALID,94.3321,VALID,0.107441,VALID,19.5873,VALID,359,VALID,0,
2012-07-05, 00:34:05,VALID,915.534,VALID,0,VALID,94.2864,VALID,0.107441,VALID,19.5873,VALID,359,VALID,0,
2012-07-05, 00:35:05,VALID,915.5,VALID,0,VALID,94.294,VALID,0,VALID,19.5888,VALID,359,VALID,0,
2012-07-05, 00:36:05,VALID,915.538,VALID,0,VALID,94.3855,VALID,0,VALID,19.6068,VALID,359,VALID,0,
2012-07-05, 00:37:05,VALID,915.537,VALID,0,VALID,94.3321,VALID,0,VALID,19.6263,VALID,342,VALID,0,
2012-07-05, 00:38:05,VALID,915.508,VALID,0,VALID,94.2559,VALID,0.107441,VALID,19.6653,VALID,342,VALID,0,
2012-07-05, 00:39:05,VALID,915.459,VALID,0,VALID,94.2864,VALID,0.107441,VALID,19.7058,VALID,342,VALID,0,
2012-07-05, 00:40:05,VALID,915.448,VALID,0,VALID,94.2559,VALID,0,VALID,19.7253,VALID,342,VALID,0,
2012-07-05, 00:41:05,VALID,915.456,VALID,0,VALID,94.1797,VALID,0,VALID,19.7448,VALID,342,VALID,0,
2012-07-05, 00:42:05,VALID,915.43,VALID,0,VALID,94.073,VALID,0,VALID,19.7238,VALID,342,VALID,0,
2012-07-05, 00:43:05,VALID,915.454,VALID,0,VALID,93.9434,VALID,0,VALID,19.6848,VALID,342,VALID,0,
2012-07-05, 00:44:05,VALID,915.405,VALID,0,VALID,93.9434,VALID,0,VALID,19.6863,VALID,342,VALID,0,
2012-07-05, 00:45:05,VALID,915.43,VALID,0,VALID,93.8671,VALID,0,VALID,19.6863,VALID,342,VALID,0,
2012-07-05, 00:46:05,VALID,915.42,VALID,0,VALID,93.7909,VALID,0.107441,VALID,19.6668,VALID,342,VALID,0,
2012-07-05, 00:47:05,VALID,915.424,VALID,0,VALID,93.8443,VALID,0,VALID,19.6068,VALID,342,VALID,0,
2012-07-05, 00:48:05,VALID,915.405,VALID,0,VALID,93.768,VALID,0,VALID,19.5873,VALID,342,VALID,0,
2012-07-05, 00:49:05,VALID,915.367,VALID,0,VALID,94.0043,VALID,0,VALID,19.5888,VALID,342,VALID,0,
2012-07-05, 00:50:05,VALID,915.383,VALID,0,VALID,94.1034,VALID,0,VALID,19.5693,VALID,342,VALID,0,
2012-07-05, 00:51:05,VALID,915.336,VALID,0,VALID,94.1416,VALID,0,VALID,19.5498,VALID,342,VALID,0,
2012-07-05, 00:52:05,VALID,915.342,VALID,0,VALID,93.9967,VALID,0.107441,VALID,19.4913,VALID,342,VALID,0,
2012-07-05, 00:53:05,VALID,915.303,VALID,0,VALID,94.2254,VALID,0,VALID,19.4718,VALID,342,VALID,0,
2012-07-05, 00:54:05,VALID,915.313,VALID,0,VALID,94.1416,VALID,0.107441,VALID,19.4313,VALID,342,VALID,0,
2012-07-05, 00:55:05,VALID,915.281,VALID,0,VALID,94.3321,VALID,0,VALID,19.3742,VALID,342,VALID,0,
2012-07-05, 00:56:05,VALID,915.302,VALID,0,VALID,94.5151,VALID,0,VALID,19.3742,VALID,342,VALID,0,
2012-07-05, 00:57:05,VALID,915.284,VALID,0,VALID,94.6218,VALID,0,VALID,19.3547,VALID,342,VALID,0,
2012-07-05, 00:58:05,VALID,915.313,VALID,0,VALID,94.7438,VALID,0,VALID,19.3157,VALID,342,VALID,0,
2012-07-05, 00:59:05,VALID,915.292,VALID,0,VALID,94.7972,VALID,0,VALID,19.3157,VALID,342,VALID,0,
2012-07-05, 01:00:05,VALID,915.234,VALID,0,VALID,94.8734,VALID,0,VALID,19.3157,VALID,342,VALID,0,
2012-07-05, 01:01:05,VALID,915.207,VALID,0,VALID,94.9954,VALID,0,VALID,19.3367,VALID,342,VALID,0,
2012-07-05, 01:02:05,VALID,915.205,VALID,0,VALID,95.0792,VALID,0,VALID,19.3367,VALID,342,VALID,0,
2012-07-05, 01:03:05,VALID,915.157,VALID,0,VALID,95.1707,VALID,0,VALID,19.3157,VALID,342,VALID,0,
2012-07-05, 01:04:05,VALID,915.116,VALID,0,VALID,95.3232,VALID,0,VALID,19.3367,VALID,342,VALID,0,
2012-07-05, 01:05:05,VALID,915.101,VALID,0,VALID,95.4375,VALID,0,VALID,19.3367,VALID,342,VALID,0,
2012-07-05, 01:06:05,VALID,915.084,VALID,0,VALID,95.5519,VALID,0,VALID,19.3172,VALID,342,VALID,0,
2012-07-05, 01:07:05,VALID,915.091,VALID,0,VALID,95.6357,VALID,0,VALID,19.3172,VALID,342,VALID,0,
2012-07-05, 01:08:05,VALID,915.081,VALID,0,VALID,95.6053,VALID,0,VALID,19.2767,VALID,342,VALID,0,
2012-07-05, 01:09:05,VALID,915.089,VALID,0,VALID,95.7425,VALID,0,VALID,19.2572,VALID,360,VALID,0,
2012-07-05, 01:10:05,VALID,915.044,VALID,0,VALID,95.7654,VALID,0,VALID,19.2767,VALID,360,VALID,0,
2012-07-05, 01:11:05,VALID,915.05,VALID,0,VALID,95.7349,VALID,0,VALID,19.2767,VALID,360,VALID,0,
2012-07-05, 01:12:05,VALID,915.04,VALID,0,VALID,95.8111,VALID,0.107441,VALID,19.2363,VALID,360,VALID,0,
2012-07-05, 01:13:05,VALID,915.011,VALID,0,VALID,95.8416,VALID,0.107441,VALID,19.2767,VALID,360,VALID,0,
2012-07-05, 01:14:05,VALID,914.979,VALID,0,VALID,95.8645,VALID,0,VALID,19.2558,VALID,360,VALID,0,
2012-07-05, 01:15:05,VALID,914.998,VALID,0,VALID,95.8721,VALID,0,VALID,19.2767,VALID,360,VALID,0,
2012-07-05, 01:16:05,VALID,914.958,VALID,0,VALID,95.7806,VALID,0.107441,VALID,19.2572,VALID,360,VALID,0,
2012-07-05, 01:17:05,VALID,914.932,VALID,0,VALID,95.7196,VALID,0,VALID,19.2572,VALID,360,VALID,0,
2012-07-05, 01:18:05,VALID,914.963,VALID,0,VALID,95.6662,VALID,0,VALID,19.2572,VALID,360,VALID,0,
2012-07-05, 01:19:05,VALID,914.938,VALID,0,VALID,95.5443,VALID,0.107441,VALID,19.2363,VALID,360,VALID,0,
2012-07-05, 01:20:05,VALID,914.932,VALID,0,VALID,95.3384,VALID,0,VALID,19.2182,VALID,360,VALID,0,
2012-07-05, 01:21:05,VALID,914.956,VALID,0,VALID,95.2393,VALID,0,VALID,19.2377,VALID,360,VALID,0,
2012-07-05, 01:22:05,VALID,914.956,VALID,0,VALID,95.1174,VALID,0.107441,VALID,19.2377,VALID,334,VALID,0,
2012-07-05, 01:23:05,VALID,914.95,VALID,0,VALID,95.0564,VALID,0.107441,VALID,19.2363,VALID,336,VALID,0,
2012-07-05, 01:24:05,VALID,914.947,VALID,0,VALID,94.942,VALID,0,VALID,19.2572,VALID,336,VALID,0,
2012-07-05, 01:25:05,VALID,914.906,VALID,0,VALID,94.7896,VALID,0.107441,VALID,19.2377,VALID,337,VALID,0,
2012-07-05, 01:26:05,VALID,914.912,VALID,0,VALID,94.6676,VALID,0.107441,VALID,19.1987,VALID,360,VALID,0,
2012-07-05, 01:27:05,VALID,914.905,VALID,0,VALID,94.7209,VALID,0,VALID,19.1987,VALID,345,VALID,0,
2012-07-05, 01:28:05,VALID,914.923,VALID,0,VALID,94.7591,VALID,0.107441,VALID,19.2377,VALID,345,VALID,0,
2012-07-05, 01:29:05,VALID,914.907,VALID,0,VALID,94.7896,VALID,0,VALID,19.2572,VALID,345,VALID,0,
2012-07-05, 01:30:05,VALID,914.908,VALID,0,VALID,94.7972,VALID,0,VALID,19.2767,VALID,345,VALID,0,
2012-07-05, 01:31:05,VALID,914.927,VALID,0,VALID,94.7743,VALID,0.107441,VALID,19.2572,VALID,345,VALID,0,
2012-07-05, 01:32:05,VALID,914.936,VALID,0,VALID,94.7972,VALID,0,VALID,19.2377,VALID,345,VALID,0,
2012-07-05, 01:33:05,VALID,914.934,VALID,0,VALID,94.7972,VALID,0,VALID,19.2182,VALID,345,VALID,0,
2012-07-05, 01:34:05,VALID,914.9,VALID,0,VALID,94.7362,VALID,0,VALID,19.1987,VALID,345,VALID,0,
2012-07-05, 01:35:05,VALID,914.901,VALID,0,VALID,94.7972,VALID,0,VALID,19.1792,VALID,345,VALID,0,
2012-07-05, 01:36:05,VALID,914.88,VALID,0,VALID,94.8582,VALID,0,VALID,19.1597,VALID,345,VALID,0,
2012-07-05, 01:37:05,VALID,914.876,VALID,0,VALID,94.7438,VALID,0,VALID,19.1207,VALID,345,VALID,0,
2012-07-05, 01:38:05,VALID,914.877,VALID,0,VALID,94.8734,VALID,0,VALID,19.1417,VALID,345,VALID,0,
2012-07-05, 01:39:05,VALID,914.926,VALID,0,VALID,95.0106,VALID,0,VALID,19.1207,VALID,345,VALID,0,
2012-07-05, 01:40:05,VALID,914.926,VALID,0,VALID,94.9649,VALID,0,VALID,19.0817,VALID,345,VALID,0,
2012-07-05, 01:41:05,VALID,914.941,VALID,0,VALID,95.0945,VALID,0.107441,VALID,19.0608,VALID,345,VALID,0,
2012-07-05, 01:42:05,VALID,914.946,VALID,0,VALID,95.0564,VALID,0.107441,VALID,19.0832,VALID,345,VALID,0,
2012-07-05, 01:43:05,VALID,914.966,VALID,0,VALID,95.1097,VALID,0.107441,VALID,19.0817,VALID,345,VALID,0,
2012-07-05, 01:44:05,VALID,914.97,VALID,0,VALID,95.0869,VALID,0,VALID,19.0622,VALID,345,VALID,0,
2012-07-05, 01:45:05,VALID,914.959,VALID,0,VALID,95.0869,VALID,0,VALID,19.0817,VALID,345,VALID,0,
2012-07-05, 01:46:05,VALID,914.969,VALID,0,VALID,95.0335,VALID,0,VALID,19.0817,VALID,345,VALID,0,
2012-07-05, 01:47:05,VALID,914.936,VALID,0,VALID,95.0564,VALID,0,VALID,19.0803,VALID,345,VALID,0,
2012-07-05, 01:48:05,VALID,914.93,VALID,0,VALID,95.0488,VALID,0,VALID,19.1012,VALID,345,VALID,0,
2012-07-05, 01:49:05,VALID,914.92,VALID,0,VALID,94.9573,VALID,0,VALID,19.1207,VALID,345,VALID,0,
2012-07-05, 01:50:05,VALID,914.921,VALID,0,VALID,94.8887,VALID,0.107441,VALID,19.1207,VALID,345,VALID,0,
2012-07-05, 01:51:05,VALID,914.871,VALID,0,VALID,94.7514,VALID,0.107441,VALID,19.1193,VALID,345,VALID,0,
2012-07-05, 01:52:05,VALID,914.868,VALID,0,VALID,94.5837,VALID,0,VALID,19.1207,VALID,345,VALID,0,
2012-07-05, 01:53:05,VALID,914.828,VALID,0,VALID,94.599,VALID,0,VALID,19.0817,VALID,345,VALID,0,
2012-07-05, 01:54:05,VALID,914.828,VALID,0,VALID,94.66,VALID,0.107441,VALID,19.1207,VALID,345,VALID,0,
2012-07-05, 01:55:05,VALID,914.813,VALID,0,VALID,94.66,VALID,0.107441,VALID,19.1402,VALID,326,VALID,0,
2012-07-05, 01:56:05,VALID,914.82,VALID,0,VALID,94.5685,VALID,0,VALID,19.1987,VALID,346,VALID,0,
2012-07-05, 01:57:05,VALID,914.813,VALID,0,VALID,94.4389,VALID,0,VALID,19.2377,VALID,346,VALID,0,
2012-07-05, 01:58:05,VALID,914.811,VALID,0,VALID,93.8976,VALID,0,VALID,19.2558,VALID,346,VALID,0,
2012-07-05, 01:59:05,VALID,914.821,VALID,0,VALID,93.3792,VALID,0,VALID,19.3547,VALID,346,VALID,0,
2012-07-05, 02:00:05,VALID,914.816,VALID,0,VALID,93.1353,VALID,0,VALID,19.4327,VALID,346,VALID,0,
2012-07-05, 02:01:05,VALID,914.838,VALID,0,VALID,92.716,VALID,0,VALID,19.4732,INVALID,360,VALID,0,
2012-07-05, 02:02:05,VALID,914.825,VALID,0,VALID,92.3424,VALID,0,VALID,19.4523,VALID,346,VALID,0,
2012-07-05, 02:03:05,VALID,914.83,VALID,0,VALID,91.8774,VALID,0,VALID,19.4523,VALID,346,VALID,0,
2012-07-05, 02:04:05,VALID,914.83,VALID,0,VALID,91.6335,VALID,0,VALID,19.4718,INVALID,360,VALID,0,
2012-07-05, 02:05:05,VALID,914.81,VALID,0,VALID,91.3743,VALID,0,VALID,19.4913,VALID,346,VALID,0,
2012-07-05, 02:06:05,VALID,914.843,VALID,0,VALID,91.4657,VALID,0,VALID,19.5108,VALID,346,VALID,0,
2012-07-05, 02:07:05,VALID,914.847,VALID,0,VALID,91.5801,VALID,0,VALID,19.4718,VALID,346,VALID,0,
2012-07-05, 02:08:05,VALID,914.831,VALID,0,VALID,91.6716,VALID,0,VALID,19.4523,VALID,346,VALID,0,
2012-07-05, 02:09:05,VALID,914.867,VALID,0,VALID,91.8164,VALID,0,VALID,19.4327,VALID,346,VALID,0,
2012-07-05, 02:10:05,VALID,914.848,VALID,0,VALID,91.8698,VALID,0,VALID,19.4132,VALID,346,VALID,0,
2012-07-05, 02:11:05,VALID,914.897,VALID,0,VALID,91.8545,VALID,0,VALID,19.3923,VALID,346,VALID,0,
2012-07-05, 02:12:05,VALID,914.872,VALID,0,VALID,92.007,VALID,0,VALID,19.3937,VALID,346,VALID,0,
2012-07-05, 02:13:05,VALID,914.878,VALID,0,VALID,92.007,VALID,0,VALID,19.3742,VALID,346,VALID,0,
2012-07-05, 02:14:05,VALID,914.882,VALID,0,VALID,91.4657,VALID,0,VALID,19.3547,VALID,338,VALID,0,
2012-07-05, 02:15:05,VALID,914.889,VALID,0,VALID,90.4976,VALID,0,VALID,19.4132,VALID,319,VALID,0,
2012-07-05, 02:16:05,VALID,914.921,VALID,0,VALID,90.9931,VALID,0,VALID,19.5303,VALID,319,VALID,0,
2012-07-05, 02:17:05,VALID,914.898,VALID,0,VALID,91.2828,VALID,0.107441,VALID,19.5498,VALID,319,VALID,0,
2012-07-05, 02:18:05,VALID,914.881,VALID,0,VALID,91.3361,VALID,0,VALID,19.5303,VALID,346,VALID,0,
2012-07-05, 02:19:05,VALID,914.898,VALID,0,VALID,91.4429,VALID,0,VALID,19.5108,VALID,346,VALID,0,
2012-07-05, 02:20:05,VALID,914.889,VALID,0,VALID,91.3209,VALID,0,VALID,19.4718,VALID,346,VALID,0,
2012-07-05, 02:21:05,VALID,914.922,VALID,0,VALID,90.8483,VALID,0,VALID,19.4523,VALID,340,VALID,0,
2012-07-05, 02:22:05,VALID,914.905,VALID,0,VALID,90.3985,VALID,0.107441,VALID,19.5108,VALID,20,VALID,0,
2012-07-05, 02:23:05,VALID,914.924,VALID,0,VALID,90.5967,VALID,0,VALID,19.6083,VALID,16,VALID,0,
2012-07-05, 02:24:05,VALID,914.907,VALID,0,VALID,90.5662,VALID,0,VALID,19.5888,VALID,16,VALID,0,
2012-07-05, 02:25:05,VALID,914.896,VALID,0,VALID,90.8025,VALID,0,VALID,19.5888,VALID,16,VALID,0,
2012-07-05, 02:26:05,VALID,914.871,VALID,0,VALID,90.8787,VALID,0,VALID,19.5693,VALID,16,VALID,0,
2012-07-05, 02:27:05,VALID,914.85,VALID,0,VALID,91.2828,VALID,0,VALID,19.5303,VALID,16,VALID,0,
2012-07-05, 02:28:05,VALID,914.831,VALID,0,VALID,91.2294,VALID,0,VALID,19.5093,VALID,16,VALID,0,
2012-07-05, 02:29:05,VALID,914.88,VALID,0,VALID,91.3514,VALID,0,VALID,19.5108,VALID,15,VALID,0,
2012-07-05, 02:30:05,VALID,914.849,VALID,0,VALID,92.19,VALID,0,VALID,19.5303,VALID,16,VALID,0,
2012-07-05, 02:31:05,VALID,914.791,VALID,0,VALID,92.6093,VALID,0,VALID,19.5108,VALID,16,VALID,0,
2012-07-05, 02:32:05,VALID,914.838,VALID,0,VALID,92.6474,VALID,0,VALID,19.4523,VALID,16,VALID,0,
2012-07-05, 02:33:05,VALID,914.848,VALID,0,VALID,92.3501,VALID,0,VALID,19.4132,VALID,16,VALID,0,
2012-07-05, 02:34:04,VALID,914.85,VALID,0,VALID,92.8303,VALID,0,VALID,19.4523,VALID,16,VALID,0,
2012-07-05, 02:35:04,VALID,914.861,VALID,0,VALID,93.1581,VALID,0.107441,VALID,19.4313,VALID,16,VALID,0,
2012-07-05, 02:36:04,VALID,914.801,VALID,0,VALID,93.4478,VALID,0,VALID,19.4327,VALID,42,VALID,0,
2012-07-05, 02:37:04,VALID,914.822,VALID,0,VALID,93.6842,VALID,0,VALID,19.4132,VALID,42,VALID,0,
2012-07-05, 02:38:04,VALID,914.815,VALID,0,VALID,93.6994,VALID,0,VALID,19.3937,VALID,42,VALID,0,
2012-07-05, 02:39:04,VALID,914.803,VALID,0,VALID,93.5469,VALID,0,VALID,19.3547,VALID,42,VALID,0,
2012-07-05, 02:40:04,VALID,914.824,VALID,0,VALID,93.3792,VALID,0,VALID,19.3352,VALID,42,VALID,0,
2012-07-05, 02:41:04,VALID,914.803,VALID,0,VALID,93.5088,VALID,0,VALID,19.3742,VALID,42,VALID,0,
2012-07-05, 02:42:04,VALID,914.791,VALID,0,VALID,93.5317,VALID,0.107441,VALID,19.3547,VALID,12,VALID,0,
2012-07-05, 02:43:04,VALID,914.772,VALID,0,VALID,93.4859,VALID,0,VALID,19.3547,VALID,12,VALID,0,
2012-07-05, 02:44:04,VALID,914.799,VALID,0,VALID,93.4631,VALID,0,VALID,19.3352,VALID,16,VALID,0,
2012-07-05, 02:45:04,VALID,914.805,VALID,0,VALID,93.3106,VALID,0,VALID,19.3547,VALID,16,VALID,0,
2012-07-05, 02:46:04,VALID,914.817,VALID,0,VALID,93.2877,VALID,0,VALID,19.3547,VALID,16,VALID,0,
2012-07-05, 02:47:04,VALID,914.849,VALID,0,VALID,93.3716,VALID,0,VALID,19.3533,VALID,16,VALID,0,
2012-07-05, 02:48:04,VALID,914.813,VALID,0,VALID,93.4478,VALID,0,VALID,19.3937,VALID,16,VALID,0,
2012-07-05, 02:49:04,VALID,914.838,VALID,0,VALID,93.6079,VALID,0,VALID,19.3937,VALID,16,VALID,0,
2012-07-05, 02:50:04,VALID,914.828,VALID,0,VALID,93.8214,VALID,0,VALID,19.3937,VALID,16,VALID,0,
2012-07-05, 02:51:04,VALID,914.829,VALID,0,VALID,94.0272,VALID,0,VALID,19.3937,VALID,16,VALID,0,
2012-07-05, 02:52:04,VALID,914.838,VALID,0,VALID,93.9129,VALID,0,VALID,19.3547,VALID,338,VALID,0,
2012-07-05, 02:53:04,VALID,914.848,VALID,0,VALID,93.5241,VALID,0,VALID,19.3742,VALID,10,VALID,0,
2012-07-05, 02:54:04,VALID,914.854,VALID,0,VALID,93.0438,VALID,0,VALID,19.3937,VALID,6,VALID,0,
2012-07-05, 02:55:04,VALID,914.826,VALID,0,VALID,92.8837,VALID,0,VALID,19.4523,VALID,7,VALID,0,
2012-07-05, 02:56:04,VALID,914.821,VALID,0,VALID,92.7617,VALID,0,VALID,19.4718,VALID,8,VALID,0,
2012-07-05, 02:57:04,VALID,914.8,VALID,0,VALID,92.777,VALID,0.107441,VALID,19.4913,VALID,7,VALID,0,
2012-07-05, 02:58:04,VALID,914.79,VALID,0,VALID,92.838,VALID,0,VALID,19.4718,VALID,8,VALID,0,
2012-07-05, 02:59:04,VALID,914.775,VALID,0,VALID,93.0285,VALID,0,VALID,19.4313,VALID,8,VALID,0,
2012-07-05, 03:00:04,VALID,914.768,VALID,0,VALID,93.1886,VALID,0,VALID,19.4327,VALID,8,VALID,0,
2012-07-05, 03:01:04,VALID,914.756,VALID,0,VALID,93.303,VALID,0,VALID,19.4132,VALID,8,VALID,0,
2012-07-05, 03:02:04,VALID,914.771,VALID,0,VALID,93.3868,VALID,0.107441,VALID,19.3923,VALID,7,VALID,0,
2012-07-05, 03:03:04,VALID,914.731,VALID,0,VALID,93.4478,VALID,0,VALID,19.3937,VALID,8,VALID,0,
2012-07-05, 03:04:04,VALID,914.752,VALID,0,VALID,93.5698,VALID,0,VALID,19.3338,VALID,8,VALID,0,
2012-07-05, 03:05:04,VALID,914.724,VALID,0,VALID,93.6384,VALID,0.107441,VALID,19.3547,VALID,7,VALID,0,
2012-07-05, 03:06:04,VALID,914.705,VALID,0,VALID,93.6994,VALID,0,VALID,19.3352,VALID,7,VALID,0,
2012-07-05, 03:07:04,VALID,914.722,VALID,0,VALID,93.7833,VALID,0.107441,VALID,19.2962,VALID,7,VALID,0,
2012-07-05, 03:08:04,VALID,914.639,VALID,0,VALID,93.9662,VALID,0,VALID,19.2363,VALID,7,VALID,0,
2012-07-05, 03:09:04,VALID,914.627,VALID,0,VALID,94.1111,VALID,0,VALID,19.2377,VALID,7,VALID,0,
2012-07-05, 03:10:04,VALID,914.541,VALID,0,VALID,94.0882,VALID,0.107441,VALID,19.2182,VALID,7,VALID,0,
2012-07-05, 03:11:04,VALID,914.57,VALID,0,VALID,94.0653,VALID,0.107441,VALID,19.2377,VALID,24,VALID,0,
2012-07-05, 03:12:04,VALID,914.558,VALID,0,VALID,93.9738,VALID,0.107441,VALID,19.2572,VALID,24,VALID,0,
2012-07-05, 03:13:04,VALID,914.543,VALID,0,VALID,93.8595,VALID,0,VALID,19.2767,VALID,24,VALID,0,
2012-07-05, 03:14:04,VALID,914.546,VALID,0,VALID,93.6537,VALID,0,VALID,19.2767,VALID,24,VALID,0,
2012-07-05, 03:15:04,VALID,914.57,VALID,0,VALID,93.5393,VALID,0,VALID,19.2767,VALID,24,VALID,0,
2012-07-05, 03:16:04,VALID,914.558,VALID,0,VALID,93.5469,VALID,0.107441,VALID,19.2753,VALID,24,VALID,0,
2012-07-05, 03:17:04,VALID,914.556,VALID,0,VALID,93.6003,VALID,0,VALID,19.2572,VALID,2,VALID,0,
2012-07-05, 03:18:04,VALID,914.561,VALID,0,VALID,93.6842,VALID,0,VALID,19.2558,VALID,2,VALID,0,
2012-07-05, 03:19:04,VALID,914.561,VALID,0,VALID,93.6994,VALID,0,VALID,19.2767,VALID,2,VALID,0,
2012-07-05, 03:20:04,VALID,914.588,VALID,0,VALID,93.7147,VALID,0,VALID,19.2767,VALID,2,VALID,0,
2012-07-05, 03:21:04,VALID,914.571,VALID,0,VALID,93.6689,VALID,0,VALID,19.2962,VALID,5,VALID,0,
2012-07-05, 03:22:04,VALID,914.557,VALID,0,VALID,93.5698,VALID,0,VALID,19.2962,VALID,22,VALID,0,
2012-07-05, 03:23:04,VALID,914.54,VALID,0,VALID,93.5012,VALID,0,VALID,19.2948,VALID,22,VALID,0,
2012-07-05, 03:24:04,VALID,914.556,VALID,0,VALID,93.2801,VALID,0.107441,VALID,19.2962,VALID,22,VALID,0,
2012-07-05, 03:25:04,VALID,914.563,VALID,0,VALID,93.1048,VALID,0,VALID,19.3547,VALID,22,VALID,0,
2012-07-05, 03:26:04,VALID,914.578,VALID,0,VALID,92.8532,VALID,0.107441,VALID,19.3742,VALID,15,VALID,0,
2012-07-05, 03:27:04,VALID,914.573,VALID,0,VALID,92.655,VALID,0.107441,VALID,19.3533,VALID,15,VALID,0,
2012-07-05, 03:28:04,VALID,914.565,VALID,0,VALID,92.4644,VALID,0.107441,VALID,19.4132,VALID,15,VALID,0,
2012-07-05, 03:29:04,VALID,914.565,VALID,0,VALID,92.3577,VALID,0.107441,VALID,19.4327,VALID,15,VALID,0,
2012-07-05, 03:30:04,VALID,914.55,VALID,0,VALID,92.3196,VALID,0.107441,VALID,19.4523,VALID,15,VALID,0,
2012-07-05, 03:31:04,VALID,914.55,VALID,0,VALID,92.2738,VALID,0,VALID,19.4523,VALID,15,VALID,0,
2012-07-05, 03:32:04,VALID,914.544,VALID,0,VALID,92.251,VALID,0,VALID,19.4718,VALID,15,VALID,0,
2012-07-05, 03:33:04,VALID,914.554,VALID,0,VALID,92.3348,VALID,0,VALID,19.4703,VALID,15,VALID,0,
2012-07-05, 03:34:04,VALID,914.52,VALID,0,VALID,92.3272,VALID,0.107441,VALID,19.4718,VALID,16,VALID,0,
2012-07-05, 03:35:04,VALID,914.54,VALID,0,VALID,92.2586,VALID,0.107441,VALID,19.4913,VALID,8,VALID,0,
2012-07-05, 03:36:04,VALID,914.541,VALID,0,VALID,92.1061,VALID,0,VALID,19.4703,VALID,15,VALID,0,
2012-07-05, 03:37:04,VALID,914.556,VALID,0,VALID,91.9613,VALID,0,VALID,19.4718,VALID,352,VALID,0,
2012-07-05, 03:38:04,VALID,914.572,VALID,0,VALID,91.8317,VALID,0.107441,VALID,19.4898,VALID,12,VALID,0,
2012-07-05, 03:39:04,VALID,914.562,VALID,0,VALID,91.8393,VALID,0,VALID,19.5303,VALID,12,VALID,0,
2012-07-05, 03:40:04,VALID,914.563,VALID,0,VALID,91.7402,VALID,0,VALID,19.5512,VALID,12,VALID,0,
2012-07-05, 03:41:04,VALID,914.578,VALID,0,VALID,91.4734,VALID,0,VALID,19.5498,VALID,353,VALID,0,
2012-07-05, 03:42:04,VALID,914.575,VALID,0,VALID,91.4124,VALID,0,VALID,19.5693,VALID,1,VALID,0,
2012-07-05, 03:43:04,VALID,914.508,VALID,0,VALID,91.5877,VALID,0,VALID,19.5903,VALID,359,VALID,0,
2012-07-05, 03:44:04,VALID,914.521,VALID,0,VALID,91.4886,VALID,0,VALID,19.5903,VALID,2,VALID,0,
2012-07-05, 03:45:04,VALID,914.53,VALID,0,VALID,91.5648,VALID,0,VALID,19.5498,VALID,360,VALID,0,
2012-07-05, 03:46:04,VALID,914.546,VALID,0,VALID,91.5496,VALID,0,VALID,19.5903,VALID,20,VALID,0,
2012-07-05, 03:47:04,VALID,914.509,VALID,0,VALID,91.5496,VALID,0,VALID,19.5903,VALID,347,VALID,0,
2012-07-05, 03:48:04,VALID,914.461,VALID,0,VALID,91.5648,VALID,0,VALID,19.5903,VALID,12,VALID,0,
2012-07-05, 03:49:04,VALID,914.472,VALID,0,VALID,91.7402,VALID,0,VALID,19.5693,VALID,14,VALID,0,
2012-07-05, 03:50:04,VALID,914.419,VALID,0,VALID,91.8088,VALID,0,VALID,19.5498,VALID,6,VALID,0,
2012-07-05, 03:51:04,VALID,914.408,VALID,0,VALID,91.824,VALID,0,VALID,19.5498,VALID,355,VALID,0,
2012-07-05, 03:52:04,VALID,914.413,VALID,0,VALID,91.7554,VALID,0,VALID,19.5708,VALID,10,VALID,0,
2012-07-05, 03:53:04,VALID,914.396,VALID,0,VALID,91.6335,VALID,0,VALID,19.6098,VALID,351,VALID,0,
2012-07-05, 03:54:04,VALID,914.425,VALID,0,VALID,91.7554,VALID,0,VALID,19.6083,VALID,351,VALID,0,
2012-07-05, 03:55:04,VALID,914.413,VALID,0,VALID,91.7326,VALID,0,VALID,19.6068,VALID,9,VALID,0,
2012-07-05, 03:56:04,VALID,914.433,VALID,0,VALID,91.5191,VALID,0,VALID,19.6068,VALID,1,VALID,0,
2012-07-05, 03:57:04,VALID,914.386,VALID,0,VALID,91.4962,VALID,0,VALID,19.6473,VALID,359,VALID,0,